Flag for U.S.A. Weather past 2 weeks in New Haven, Connecticut, U.S.A.

Now
75 °F

Scattered clouds.


Feels Like: 77 °F
Forecast: 66 / 81 °F
Wind: 6 mph from South

Location: Tweed-New Haven Airport

Current Time: Jul 31, 2014 at 9:26:23 PM

Latest Report: Jul 31, 2014 at 8:53 PM


Visibility: 10 mi

Pressure: 30.14 "Hg

Humidity: 66%

Dew point: 63 °F

Location of New HavenLocation

Historic Weather in New Haven — Graph

°F

New Haven temperature yesterday

Maximum temperature yesterday: 79 °F (at 3:53 PM)
Minimum temperature yesterday: 59 °F (at 5:53 AM)
Average temperature yesterday: 71 °F

Past Weeks' High & Low Weather Summary

 TemperatureHumidityPressure
High85 °F (Jul 23, 2:53 PM)91% (Jul 31, 6:53 AM)30.26 "Hg (Jul 31, 6:53 AM)
Low59 °F (Jul 30, 5:53 AM)31% (Jul 18, 1:53 PM)29.49 "Hg (Jul 28, 4:53 PM)
Average74 °F67%29.98 "Hg
* Reported Jul 16 7:53 PM — Jul 31 7:53 PM, New Haven, Weather by CustomWeather, © 2014

Note: Actual official high and low records may vary slightly from our data, if they occured in-between our weather recording intervals... More about our weather records

Advertising

New Haven weather history for previous 24 hours

 ConditionsComfort  
Time TempWeatherWind HumidityBarometerVisibility
7:53 PM
Jul 31
76 °FScattered clouds.8 mph62%30.12 "Hg10 mi
6:53 PM77 °FPassing clouds.8 mph58%30.11 "Hg10 mi
5:53 PM79 °FPassing clouds.10 mph58%30.10 "Hg10 mi
4:53 PM82 °FPassing clouds.10 mph53%30.09 "Hg10 mi
3:53 PM83 °FPassing clouds.8 mph46%30.09 "Hg10 mi
2:53 PM82 °FPassing clouds.7 mph43%30.09 "Hg10 mi
1:53 PM82 °FPassing clouds.7 mph43%30.09 "Hg10 mi
12:53 PM80 °FScattered clouds.7 mph45%30.10 "Hg10 mi
11:53 AM78 °FScattered clouds.5 mph54%30.11 "Hg10 mi
10:53 AM75 °FPartly sunny.9 mph62%30.11 "Hg10 mi
9:53 AM74 °FScattered clouds.7 mph69%30.11 "Hg10 mi
8:53 AM74 °FScattered clouds.7 mph71%30.10 "Hg10 mi
7:53 AM69 °FBroken clouds.No wind87%30.10 "Hg10 mi
6:53 AM65 °FBroken clouds.No wind91%30.09 "Hg10 mi
5:53 AM63 °FPartly cloudy.No wind87%30.08 "Hg10 mi
4:53 AM63 °FClear.No wind87%30.06 "Hg10 mi
3:53 AM64 °FClear.3 mph84%30.06 "Hg10 mi
2:53 AM68 °FClear.No wind82%30.05 "Hg10 mi
1:53 AM70 °FClear.No wind76%30.05 "Hg10 mi
12:53 AM72 °FClear.5 mph68%30.05 "Hg10 mi
11:53 PM
Jul 30
72 °FClear.5 mph66%30.05 "Hg10 mi
10:53 PM73 °FClear.7 mph64%30.05 "Hg10 mi
9:53 PM73 °FClear.7 mph64%30.05 "Hg10 mi
Weather by CustomWeather, © 2014

See weather overviewHow to use our weather pages